FENGYUN 1C DEB

Satellite information

Favourite Embed

Satellite Type and Status

DEBRISIN ORBIT

Key statistics

Satellite FENGYUN 1C DEB at a glance.

Uptime

9715

Days in orbit

Revolutions

≈ 12.8

Per day

Orbit

SSO

Sun Synchronous Orbit

Inclination

99.2

Latest

Satellite identification and parameters

Extended collection of information and parameters for FENGYUN 1C DEB.

Object identification

Identified? True

Debris? True

Object name: FENGYUN 1C DEB

International designator: 1999-025CDY

Object number (NORAD): 31725

Object ID (CCSDS): 31725

Country: PEOPLES REPUBLIC OF CHINA (PRC)

Current information (Y/N): Y

RCS size: SMALL

Orbital parameters

Period: 112.573 minutes

Inclination: 99.1805 deg

SMA: 7722.933 km

Apoapsis: 1881.107 km

Periapsis: 808.489 km

RAAN: 201.28 deg

Eccentricy: 0.06944368

Argument of periapsis: 341.3906 deg

Mean anomaly: 16.2905 deg

Mean motion: 12.79173156 rev/day

Mean motion (dot): 0.00002769 rev/day2

B* drag term: 0.004491389 1/REarth

Two-line elements (TLE)

Creation date: Dec. 10, 2025, 10:40 a.m.

Reference frame: TEME

Reference center: EARTH

Epoch: Dec. 9, 2025, 7:45 p.m. UTC

TLE line 0: 0 FENGYUN 1C DEB

TLE line 1: 1 31725U 99025CDY 25343.82328134 .00002769 00000-0 44914-2 0 9999

TLE line 2: 2 31725 99.1805 201.2800 0694437 341.3906 16.2905 12.79173156864445

Live tracking on map

Real-time ground track for satellite FENGYUN 1C DEB.

In-orbit conjunctions

A list of the most updated potential collisions computed for object FENGYUN 1C DEB.

Target Orbit TCA Probability of collision Miss distance Type
COSMOS 980 LEO 2025-04-29 21:01:35 0.0001311221 297.0 (m) PAYLOAD
COSMOS 2250 LEO 2025-04-10 18:55:46 0.0003558722 311.0 (m) PAYLOAD
SL-8 R/B LEO 2024-11-07 18:19:55 0.0001918697 419.0 (m) ROCKET BODY

Associated space launch

Chinese polar orbiting meteorological satellite

FENGYUN 1C DEB was lifted into orbit during the mission ‘Long March 4B | Feng Yun 1C’, on board a Long March 4B space rocket.

The launch took place on May 10, 1999, 1:33 a.m. from Launch Complex 7.

For more information about the launch, click the button.

Launch to space Long March 4B | Feng Yun 1C
Long March 4B | Feng Yun 1C

Agency: N/A

Status: Launch Successful

Launch date: May 10, 1999, 1:33 a.m. UTC

Rocket: Long March 4B

Launch pad: Launch Complex 7

Location: Taiyuan Satellite Launch Center, People's Republic of China

...

Latest news about this satellite

There are no fresh news available about this satellite. Check back as we update our databases every day.


Newsletter sign-up

Weekly statistics, charts and insights to help you stay on top of the space industry.